User: anonymous   Login
Location: Raleigh
(35.7720°N, 78.6390°W)
Time: 16:42:18
(UTC-04:00)
Language:

FO-29 - Orbit

View from above orbital plane
View from above orbital plane
View from above satellite
View from above satellite

Ground track
Ground track

The orbit data is extracted from the following two-line orbital elements,

1 24278U 96046B   17142.94942135 -.00000052 +00000-0 -18481-4 0  9995
2 24278 098.5678 029.5611 0351170 042.9243 319.8740 13.53076401025215
Epoch (UTC): 22 May 2017 22:47:10
Eccentricity: 0.0351170
inclination: 98.5678°
perigee height: 800 km
apogee height: 1322 km
right ascension of ascending node: 29.5611°
argument of perigee: 42.9243°
revolutions per day: 13.53076401
mean anomaly at epoch: 319.8740°
orbit number at epoch: 2521

The dashed part of the orbit path shows where the satellite is in the earth's shadow,  

DLR